Benson, MN

3:36 AM CST on February 11, 2016 (GMT -0600)
Benson Municipal

Weather History for KBBB - December, 2013

Change the Weather History Date:

Friday, December 27, 2013

  Actual Average Record
Temperature  
Mean Temperature 30 °F -  
Max Temperature 39 °F 24 °F 51 °F (2003)
Min Temperature 21 °F 6 °F -23 °F (1993)
Degree Days  
Heating Degree Days 35    
Moisture  
Dew Point 26 °F    
Average Humidity 86    
Maximum Humidity 100    
Minimum Humidity 70    
Precipitation  
Precipitation 0.00 in - - ()
Sea Level Pressure  
Sea Level Pressure 29.97 in    
Wind  
Wind Speed 8 mph (WSW)    
Max Wind Speed 13 mph    
Max Gust Speed -    
Visibility 9 miles    
Events Fog    
Averages and records for this station are not official NWS values.
T = Trace of Precipitation, MM = Missing Value Source: NWS Daily Summary

Daily Weather History Graph

Daily Weather History Graph

Search for Another Location

Airport or City:

Trip Planner

Search our weather history database for the weather conditions in past years. The results will help you decide how hot, cold, wet, or windy it might be!

Date:

Astronomy

Dec. 27, 2013 Rise Set
Actual Time 8:01 AM CST 4:46 PM CST
Civil Twilight 7:27 AM CST 5:20 PM CST
Nautical Twilight 6:49 AM CST 5:57 PM CST
Astronomical Twilight 6:13 AM CST 6:33 PM CST
Moon 2:24 AM CST (12/27) 1:06 PM CST (12/27)
Length of Visible Light 9h 53m
Length of Day
8h 45m
Waning Crescent, 28% of the Moon is Illuminated
Dec 27
Waning Crescent
Jan 1
New
Jan 7
First Quarter
Jan 15
Full
Jan 23
Last Quarter

Hourly Weather History & Observations

Time (CST) Temp. Windchill Dew Point Humidity Pressure Visibility Wind Dir Wind Speed Gust Speed Precip Events Conditions
12:12 AM 28.4 °F 24.6 °F 24.8 °F 86% 30.12 in 10.0 mi SW 3.5 mph - N/A   Overcast
12:33 AM 28.4 °F 24.6 °F 24.8 °F 86% 30.10 in 10.0 mi SW 3.5 mph - N/A   Overcast
12:52 AM 28.4 °F 23.3 °F 24.8 °F 86% 30.10 in 10.0 mi WSW 4.6 mph - N/A   Overcast
1:12 AM 28.4 °F 22.2 °F 26.6 °F 93% 30.09 in 10.0 mi WSW 5.8 mph - N/A   Overcast
1:33 AM 30.2 °F 22.6 °F 26.6 °F 86% 30.09 in 10.0 mi WSW 8.1 mph - N/A   Overcast
1:53 AM 30.2 °F 21.9 °F 26.6 °F 86% 30.09 in 10.0 mi WSW 9.2 mph - N/A   Overcast
2:12 AM 30.2 °F 21.3 °F 26.6 °F 86% 30.08 in 10.0 mi WSW 10.4 mph - N/A   Overcast
2:33 AM 30.2 °F 20.8 °F 26.6 °F 86% 30.08 in 10.0 mi WSW 11.5 mph - N/A   Overcast
2:52 AM 28.4 °F 21.2 °F 24.8 °F 86% 30.07 in 10.0 mi SW 6.9 mph - N/A   Scattered Clouds
3:12 AM 26.6 °F 19.1 °F 24.8 °F 93% 30.07 in 10.0 mi SW 6.9 mph - N/A   Clear
3:33 AM 26.6 °F 19.1 °F 24.8 °F 93% 30.06 in 10.0 mi SSW 6.9 mph - N/A   Clear
3:52 AM 24.8 °F 15.3 °F 23.0 °F 93% 30.04 in 10.0 mi SW 9.2 mph - N/A   Clear
4:12 AM 24.8 °F 15.3 °F 23.0 °F 93% 30.03 in 10.0 mi SSW 9.2 mph - N/A   Clear
4:32 AM 24.8 °F 15.3 °F 21.2 °F 86% 30.03 in 10.0 mi SSW 9.2 mph - N/A   Clear
4:52 AM 23.0 °F 13.1 °F 21.2 °F 93% 30.03 in 10.0 mi SSW 9.2 mph - N/A   Clear
5:12 AM 21.2 °F 10.9 °F 19.4 °F 93% 30.02 in 7.0 mi SSW 9.2 mph - N/A   Clear
5:32 AM 23.0 °F 13.9 °F 21.2 °F 93% 30.01 in 10.0 mi South 8.1 mph - N/A   Clear
5:53 AM 21.2 °F 10.1 °F 19.4 °F 93% 29.99 in 10.0 mi South 10.4 mph - N/A   Clear
6:12 AM 21.2 °F 10.1 °F 19.4 °F 93% 29.98 in 10.0 mi South 10.4 mph - N/A   Clear
6:32 AM 23.0 °F 12.4 °F 21.2 °F 93% 29.97 in 10.0 mi South 10.4 mph - N/A   Clear
6:53 AM 21.2 °F 11.7 °F 19.4 °F 93% 29.96 in 10.0 mi South 8.1 mph - N/A   Clear
7:12 AM 21.2 °F 11.7 °F 19.4 °F 93% 29.96 in 10.0 mi South 8.1 mph - N/A   Scattered Clouds
7:32 AM 21.2 °F 10.9 °F 19.4 °F 93% 29.95 in 10.0 mi South 9.2 mph - N/A   Scattered Clouds
7:53 AM 23.0 °F 13.1 °F 21.2 °F 93% 29.93 in 10.0 mi South 9.2 mph - N/A   Mostly Cloudy
8:12 AM 24.8 °F 14.6 °F 21.2 °F 86% 29.92 in 10.0 mi South 10.4 mph - N/A   Overcast
8:32 AM 26.6 °F 16.8 °F 24.8 °F 93% 29.91 in 10.0 mi SSW 10.4 mph - N/A   Overcast
8:53 AM 28.4 °F 19.7 °F 24.8 °F 86% 29.91 in 10.0 mi SSW 9.2 mph - N/A   Overcast
9:12 AM 30.2 °F 23.4 °F 24.8 °F 80% 29.91 in 10.0 mi SSW 6.9 mph - N/A   Overcast
9:32 AM 30.2 °F 21.9 °F 26.6 °F 86% 29.90 in 10.0 mi SSW 9.2 mph - N/A   Mostly Cloudy
9:52 AM 32.0 °F 24.2 °F 26.6 °F 80% 29.89 in 10.0 mi SSW 9.2 mph - N/A   Scattered Clouds
10:12 AM 33.8 °F 29.6 °F 26.6 °F 75% 29.91 in 10.0 mi WSW 4.6 mph - N/A   Clear
10:33 AM 33.8 °F 27.7 °F 26.6 °F 75% 29.91 in 10.0 mi WSW 6.9 mph - N/A   Clear
10:52 AM 35.6 °F 28.0 °F 28.4 °F 75% 29.91 in 10.0 mi West 10.4 mph - N/A   Clear
11:12 AM 37.4 °F 30.3 °F 28.4 °F 70% 29.91 in 10.0 mi West 10.4 mph - N/A   Clear
11:33 AM 37.4 °F 30.3 °F 28.4 °F 70% 29.90 in 10.0 mi West 10.4 mph - N/A   Clear
11:52 AM 37.4 °F 29.3 °F 28.4 °F 70% 29.90 in 10.0 mi West 12.7 mph - N/A   Clear
12:12 PM 37.4 °F 29.8 °F 30.2 °F 75% 29.90 in 10.0 mi WNW 11.5 mph - N/A   Clear
12:33 PM 39.2 °F 32.0 °F 30.2 °F 70% 29.90 in 10.0 mi WNW 11.5 mph - N/A   Clear
12:52 PM 39.2 °F 31.6 °F 30.2 °F 70% 29.91 in 10.0 mi NW 12.7 mph - N/A   Clear
1:12 PM 39.2 °F 31.6 °F 30.2 °F 70% 29.90 in 10.0 mi NW 12.7 mph - N/A   Clear
1:33 PM 39.2 °F 31.6 °F 30.2 °F 70% 29.91 in 10.0 mi WNW 12.7 mph - N/A   Clear
1:52 PM 37.4 °F 29.8 °F 30.2 °F 75% 29.90 in 10.0 mi NW 11.5 mph - N/A   Clear
2:12 PM 37.4 °F 29.3 °F 32.0 °F 81% 29.91 in 10.0 mi NW 12.7 mph - N/A   Clear
2:33 PM 37.4 °F 29.8 °F 32.0 °F 81% 29.91 in 10.0 mi NW 11.5 mph - N/A   Clear
2:52 PM 39.2 °F 32.5 °F 32.0 °F 75% 29.92 in 10.0 mi NW 10.4 mph - N/A   Clear
3:12 PM 39.2 °F 32.5 °F 32.0 °F 75% 29.92 in 10.0 mi NNW 10.4 mph - N/A   Clear
3:33 PM 37.4 °F 30.8 °F 32.0 °F 81% 29.93 in 10.0 mi NNW 9.2 mph - N/A   Clear
3:52 PM 37.4 °F 30.3 °F 32.0 °F 81% 29.94 in 10.0 mi NW 10.4 mph - N/A   Clear
4:13 PM 35.6 °F 28.6 °F 32.0 °F 87% 29.94 in 10.0 mi NW 9.2 mph - N/A   Clear
4:32 PM 35.6 °F 28.6 °F 30.2 °F 81% 29.95 in 10.0 mi NW 9.2 mph - N/A   Clear
4:52 PM 35.6 °F 28.6 °F 30.2 °F 81% 29.95 in 10.0 mi NNW 9.2 mph - N/A   Clear
5:13 PM 33.8 °F 26.4 °F 30.2 °F 87% 29.95 in 10.0 mi NW 9.2 mph - N/A   Clear
5:32 PM 33.8 °F 27.0 °F 30.2 °F 87% 29.96 in 10.0 mi NW 8.1 mph - N/A   Clear
5:52 PM 32.0 °F 25.6 °F 28.4 °F 87% 29.96 in 10.0 mi NW 6.9 mph - N/A   Clear
6:13 PM 33.8 °F 25.3 °F 30.2 °F 87% 29.97 in 10.0 mi NNW 11.5 mph - N/A   Clear
6:32 PM 33.8 °F 27.0 °F 30.2 °F 87% 29.98 in 10.0 mi North 8.1 mph - N/A   Clear
6:52 PM 32.0 °F 28.7 °F 30.2 °F 93% 29.99 in 10.0 mi NNW 3.5 mph - N/A   Clear
7:13 PM 28.4 °F 21.2 °F 26.6 °F 93% 29.99 in 10.0 mi NW 6.9 mph - N/A   Clear
7:32 PM 28.4 °F - 26.6 °F 93% 29.98 in 10.0 mi Calm Calm - N/A   Clear
7:52 PM 28.4 °F 22.2 °F 26.6 °F 93% 29.98 in 10.0 mi NW 5.8 mph - N/A   Clear
8:13 PM 28.4 °F 23.3 °F 26.6 °F 93% 29.98 in 10.0 mi West 4.6 mph - N/A   Clear
8:32 PM 26.6 °F 20.0 °F 24.8 °F 93% 29.98 in 10.0 mi WNW 5.8 mph - N/A   Clear
8:52 PM 26.6 °F 19.1 °F 24.8 °F 93% 29.99 in 10.0 mi West 6.9 mph - N/A   Clear
9:13 PM 26.6 °F 19.1 °F 26.6 °F 100% 29.97 in 10.0 mi WSW 6.9 mph - N/A   Clear
9:32 PM 24.8 °F 20.5 °F 24.8 °F 100% 29.98 in 10.0 mi WSW 3.5 mph - N/A   Clear
9:52 PM 26.6 °F - 24.8 °F 93% 29.97 in 7.0 mi Calm Calm - N/A   Clear
10:13 PM 24.8 °F 19.1 °F 23.0 °F 93% 29.96 in 7.0 mi WSW 4.6 mph - N/A   Clear
10:32 PM 24.8 °F - 24.8 °F 100% 29.95 in 0.8 mi Calm Calm - N/A   Mist
10:52 PM 24.8 °F 20.5 °F 23.0 °F 93% 29.95 in 0.5 mi SW 3.5 mph - N/A Fog Light Freezing Fog
11:13 PM 24.8 °F 20.5 °F 24.8 °F 100% 29.94 in 0.5 mi South 3.5 mph - N/A Fog Light Freezing Fog
11:32 PM 24.8 °F 20.5 °F 23.0 °F 93% 29.93 in 0.8 mi South 3.5 mph - N/A   Mostly Cloudy
11:53 PM 24.8 °F 19.1 °F 23.0 °F 93% 29.93 in 4.0 mi South 4.6 mph - N/A   Scattered Clouds